Weather History for Darlington, SC

Change the Weather History Date:

Saturday, March 24, 2012

  Actual Average (KFLO) Record (KFLO)
Temperature  
Mean Temperature 72 °F 58 °F  
Max Temperature 80 °F 70 °F 85 °F (1949)
Min Temperature 64 °F 46 °F 30 °F (1960)
Degree Days  
Heating Degree Days 0 8  
Month to date heating degree days 258  
Since 1 July heating degree days 2324  
Cooling Degree Days 7 1  
Month to date cooling degree days 11  
Year to date cooling degree days 17  
Growing Degree Days 22 (Base 50)    
Moisture  
Dew Point 65 °F    
Average Humidity 86    
Maximum Humidity 100    
Minimum Humidity 57    
Precipitation  
Precipitation 0.03 in 0.10 in 2.22 in (1983)
Month to date precipitation 2.59  
Year to date precipitation 8.74  
Sea Level Pressure  
Sea Level Pressure 29.93 in    
Wind  
Wind Speed 8 mph (SSW)    
Max Wind Speed 18 mph    
Max Gust Speed 18 mph    
Visibility 10 miles    
Events Thunderstorm    
T = Trace of Precipitation, MM = Missing Value Source: NWS Daily Summary

Daily Weather History Graph

Daily Weather History Graph

Search for Another Location

Airport:

Trip Planner

Search our weather history database for the weather conditions in past years. The results will help you decide how hot, cold, wet, or windy it might be!

Date:

Astronomy

Mar. 24, 2012 Rise Set
Actual Time 7:17 AM EDT 7:34 PM EDT
Civil Twilight 6:51 AM EDT 7:59 PM EDT
Nautical Twilight 6:22 AM EDT 8:29 PM EDT
Astronomical Twilight 5:52 AM EDT 8:59 PM EDT
Moon 8:02 AM EDT (3/24) 9:44 PM EDT (3/24)
Length of Visible Light 13h 07m
Length of Day
12h 17m
Waxing Crescent, 4% of the Moon is Illuminated
Mar 24
Waxing Crescent
Mar 30
First Quarter
Apr 6
Full
Apr 13
Last Quarter
Apr 21
New

Hourly Weather History & Observations

Time (EDT) Temp. Heat Index Dew Point Humidity Pressure Visibility Wind Dir Wind Speed Gust Speed Precip Events Conditions
12:15 AM 69.8 °F - 66.2 °F 88% 30.02 in 10.0 mi South 8.1 mph - N/A   Overcast
12:35 AM 69.8 °F - 64.4 °F 83% 30.02 in 10.0 mi SSW 10.4 mph - N/A   Overcast
12:55 AM 69.8 °F - 64.4 °F 83% 30.02 in 10.0 mi SSW 12.7 mph 18.4 mph N/A   Mostly Cloudy
1:15 AM 68.0 °F - 64.4 °F 88% 30.01 in 10.0 mi SSW 10.4 mph - N/A   Overcast
1:35 AM 66.2 °F - 64.4 °F 94% 30.01 in 10.0 mi SSW 9.2 mph - N/A   Mostly Cloudy
1:55 AM 66.2 °F - 64.4 °F 94% 30.00 in 10.0 mi SSW 6.9 mph - N/A   Overcast
2:15 AM 66.2 °F - 64.4 °F 94% 30.00 in 10.0 mi SSW 9.2 mph - N/A   Overcast
2:35 AM 66.2 °F - 64.4 °F 94% 30.00 in 10.0 mi SSW 8.1 mph - N/A   Overcast
2:55 AM 66.2 °F - 64.4 °F 94% 29.98 in 10.0 mi South 9.2 mph - N/A   Overcast
3:15 AM 66.2 °F - 64.4 °F 94% 29.98 in 10.0 mi SSW 6.9 mph - N/A   Overcast
3:35 AM 64.4 °F - 64.4 °F 100% 29.96 in 10.0 mi SSW 4.6 mph - N/A   Overcast
3:55 AM 64.4 °F - 64.4 °F 100% 29.95 in 10.0 mi SSW 3.5 mph - N/A   Overcast
4:15 AM 64.4 °F - 64.4 °F 100% 29.95 in 10.0 mi Calm Calm - N/A   Overcast
4:35 AM 64.4 °F - 64.4 °F 100% 29.95 in 10.0 mi SSW 3.5 mph - N/A   Overcast
4:55 AM 64.4 °F - 64.4 °F 100% 29.95 in 10.0 mi South 4.6 mph - N/A   Overcast
5:15 AM 64.4 °F - 64.4 °F 100% 29.95 in 10.0 mi South 5.8 mph - N/A   Mostly Cloudy
5:35 AM 64.4 °F - 64.4 °F 100% 29.95 in 10.0 mi SSW 6.9 mph - N/A   Mostly Cloudy
5:55 AM 64.4 °F - 62.6 °F 94% 29.95 in 10.0 mi SSW 8.1 mph - N/A   Mostly Cloudy
6:15 AM 64.4 °F - 64.4 °F 100% 29.95 in 10.0 mi SW 6.9 mph - 0.01 in   Mostly Cloudy
6:35 AM 64.4 °F - 64.4 °F 100% 29.95 in 10.0 mi South 5.8 mph - 0.01 in   Overcast
6:55 AM 64.4 °F - 64.4 °F 100% 29.95 in 10.0 mi South 3.5 mph - 0.01 in   Mostly Cloudy
7:15 AM 64.4 °F - 64.4 °F 100% 29.95 in 10.0 mi South 3.5 mph - N/A   Scattered Clouds
7:35 AM 64.4 °F - 62.6 °F 94% 29.95 in 10.0 mi SSW 3.5 mph - N/A   Mostly Cloudy
7:55 AM 64.4 °F - 64.4 °F 100% 29.96 in 10.0 mi Calm Calm - N/A   Overcast
8:15 AM 64.4 °F - 64.4 °F 100% 29.96 in 10.0 mi SSE 3.5 mph - 0.01 in   Mostly Cloudy
8:35 AM 64.4 °F - 64.4 °F 100% 29.96 in 10.0 mi SSE 4.6 mph - 0.01 in   Mostly Cloudy
8:55 AM 64.4 °F - 62.6 °F 94% 29.96 in 10.0 mi South 5.8 mph - 0.01 in   Mostly Cloudy
9:15 AM 66.2 °F - 64.4 °F 94% 29.96 in 10.0 mi South 8.1 mph - N/A   Scattered Clouds
9:35 AM 68.0 °F - 66.2 °F 94% 29.95 in 10.0 mi SSW 10.4 mph - N/A   Mostly Cloudy
9:55 AM 69.8 °F - 66.2 °F 88% 29.95 in 10.0 mi SSW 9.2 mph - N/A   Overcast
10:15 AM 69.8 °F - 66.2 °F 88% 29.96 in 10.0 mi SW 12.7 mph - N/A   Overcast
10:35 AM 69.8 °F - 66.2 °F 88% 29.95 in 10.0 mi SW 15.0 mph - N/A   Overcast
10:55 AM 69.8 °F - 66.2 °F 88% 29.95 in 10.0 mi SW 10.4 mph - N/A   Overcast
11:15 AM 71.6 °F - 68.0 °F 88% 29.95 in 10.0 mi SSW 11.5 mph 17.3 mph N/A   Overcast
11:35 AM 71.6 °F - 66.2 °F 83% 29.95 in 10.0 mi SW 8.1 mph - N/A   Mostly Cloudy
11:55 AM 73.4 °F - 66.2 °F 78% 29.94 in 10.0 mi SW 9.2 mph - N/A   Mostly Cloudy
12:15 PM 73.4 °F - 66.2 °F 78% 29.93 in 10.0 mi SSW 11.5 mph - N/A   Mostly Cloudy
12:35 PM 75.2 °F - 66.2 °F 73% 29.91 in 10.0 mi SW 13.8 mph 18.4 mph N/A   Mostly Cloudy
12:55 PM 75.2 °F - 64.4 °F 69% 29.90 in 10.0 mi SSW 9.2 mph - N/A   Partly Cloudy
1:15 PM 77.0 °F - 66.2 °F 69% 29.89 in 10.0 mi SW 13.8 mph - N/A   Partly Cloudy
1:35 PM 77.0 °F - 64.4 °F 65% 29.87 in 10.0 mi SW 10.4 mph - N/A   Partly Cloudy
1:55 PM 78.8 °F - 64.4 °F 61% 29.87 in 10.0 mi SSW 8.1 mph - N/A   Partly Cloudy
2:15 PM 78.8 °F - 64.4 °F 61% 29.86 in 10.0 mi SSW 9.2 mph - N/A   Scattered Clouds
2:35 PM 78.8 °F - 64.4 °F 61% 29.85 in 10.0 mi SSW 10.4 mph 18.4 mph N/A   Mostly Cloudy
2:55 PM 80.6 °F 82.3 °F 64.4 °F 58% 29.83 in 10.0 mi South 10.4 mph - N/A   Scattered Clouds
3:15 PM 80.6 °F 82.3 °F 64.4 °F 58% 29.82 in 10.0 mi South 15.0 mph - N/A   Partly Cloudy
3:35 PM 78.8 °F - 62.6 °F 57% 29.81 in 10.0 mi SSW 13.8 mph - N/A   Scattered Clouds
3:55 PM 77.0 °F - 62.6 °F 61% 29.81 in 10.0 mi SSW 11.5 mph - N/A   Clear
4:15 PM 75.2 °F - 64.4 °F 69% 29.82 in 10.0 mi SSW 12.7 mph - N/A Thunderstorm Scattered Clouds
4:35 PM 71.6 °F - 66.2 °F 83% 29.82 in 10.0 mi SW 9.2 mph - N/A   Mostly Cloudy
4:55 PM 69.8 °F - 64.4 °F 83% 29.81 in 10.0 mi South 18.4 mph - 0.01 in Thunderstorm Mostly Cloudy
5:15 PM 66.2 °F - 64.4 °F 94% 29.80 in 10.0 mi South 11.5 mph - N/A Thunderstorm Overcast
5:35 PM 66.2 °F - 62.6 °F 88% 29.80 in 10.0 mi South 8.1 mph - N/A   Partly Cloudy
5:55 PM 69.8 °F - 60.8 °F 73% 29.79 in 10.0 mi SSW 12.7 mph - N/A   Clear
6:15 PM 71.6 °F - 62.6 °F 73% 29.78 in 10.0 mi South 8.1 mph - N/A   Clear
6:35 PM 69.8 °F - 60.8 °F 73% 29.78 in 10.0 mi South 8.1 mph - N/A   Clear
6:55 PM 68.0 °F - 60.8 °F 78% 29.77 in 10.0 mi SSE 6.9 mph - N/A   Clear
7:15 PM 69.8 °F - 60.8 °F 73% 29.79 in 10.0 mi South 6.9 mph - N/A   Clear
7:35 PM 69.8 °F - 57.2 °F 64% 29.81 in 10.0 mi SSW 4.6 mph - N/A   Scattered Clouds
7:55 PM 66.2 °F - 60.8 °F 83% 29.82 in 10.0 mi WNW 6.9 mph - N/A   Mostly Cloudy
8:15 PM 66.2 °F - 60.8 °F 83% 29.82 in 10.0 mi WNW 8.1 mph - N/A   Mostly Cloudy
8:35 PM 66.2 °F - 60.8 °F 83% 29.82 in 10.0 mi WNW 3.5 mph - N/A   Overcast
8:55 PM 66.2 °F - 60.8 °F 83% 29.82 in 10.0 mi Calm Calm - N/A   Overcast
9:15 PM 66.2 °F - 60.8 °F 83% 29.83 in 10.0 mi West 6.9 mph - N/A Thunderstorm Overcast
9:35 PM 64.4 °F - 60.8 °F 88% 29.84 in 10.0 mi South 10.4 mph - 0.10 in Thunderstorm Thunderstorm
9:55 PM 62.6 °F - 60.8 °F 94% 29.82 in 10.0 mi East 3.5 mph - 0.11 in Thunderstorm Overcast
10:15 PM 62.6 °F - 60.8 °F 94% 29.82 in 10.0 mi SE 6.9 mph - N/A Thunderstorm Overcast
10:35 PM 62.6 °F - 60.8 °F 94% 29.83 in 10.0 mi SSE 5.8 mph - 0.02 in Thunderstorm Overcast
10:55 PM 62.6 °F - 60.8 °F 94% 29.83 in 8.0 mi Calm Calm - 0.05 in   Overcast
11:15 PM 60.8 °F - 60.8 °F 100% 29.84 in 10.0 mi SSE 9.2 mph - 0.02 in Thunderstorm Overcast
11:35 PM 60.8 °F - 57.2 °F 88% 29.81 in 10.0 mi SE 15.0 mph - 0.07 in Thunderstorm Overcast
11:55 PM 60.8 °F - 59.0 °F 94% 29.81 in 10.0 mi SE 12.7 mph - 0.09 in Thunderstorm Overcast